This demonstration page uses our WeatherBlox Daily Observations layout. Learn more.

Left ArrowRight Arrow

36.19886, -115.1175

Hourly Observations for May 17, 2022

Temp ( °F °C ) Dew Point ( °F °C ) Humidity (%) Winds ( mph kmh ) Pressure ( in mb ) Visibility ( mi km ) Precip ( " mm )
12:53 am 00:53 Clear 84 28.9 27 -2.8 12 12 S 8 13 29.70 1006 10 16 0.00 0.00
1:53 am 01:53 Clear 82 27.8 25 -3.9 12 12 SW 8 13 29.71 1006 10 16 0.00 0.00
2:53 am 02:53 Clear 80 26.7 25 -3.9 13 13 SW 3 6 29.71 1006 10 16 0.00 0.00
3:53 am 03:53 Clear 74 23.3 30 -1.1 20 20 Calm 29.72 1007 10 16 0.00 0.00
4:53 am 04:53 Clear 72 22.2 27 -2.8 19 19 NW 9 15 29.74 1007 10 16 0.00 0.00
5:53 am 05:53 Sunny 74 23.3 25 -3.9 16 16 NNE 7 11 29.75 1008 10 16 0.00 0.00
6:53 am 06:53 Sunny 75 23.9 26 -3.3 16 16 WNW 7 11 29.79 1009 10 16 0.00 0.00
7:53 am 07:53 Sunny 79 26.1 26 -3.3 14 14 NNW 5 7 29.80 1009 10 16 0.00 0.00
8:53 am 08:53 Sunny 83 28.3 26 -3.3 12 12 Calm 29.82 1010 10 16 0.00 0.00
9:53 am 09:53 Sunny 86 30 27 -2.8 12 12 Calm 29.81 1010 10 16 0.00 0.00
10:53 am 10:53 Sunny 90 32.2 27 -2.8 10 10 VRB 3 6 29.82 1010 10 16 0.00 0.00
11:53 am 11:53 Sunny 94 34.4 28 -2.2 9 9 E 6 9 29.80 1009 10 16 0.00 0.00
12:53 pm 12:53 Sunny 94 34.4 28 -2.2 9 9 SSE 9 15 29.79 1009 10 16 0.00 0.00
1:53 pm 13:53 Sunny 97 36.1 28 -2.2 9 9 VRB 6 9 29.77 1008 10 16 0.00 0.00
2:53 pm 14:53 Sunny 97 36.1 29 -1.7 9 9 VRB 6 9 29.75 1008 10 16 0.00 0.00
3:53 pm 15:53 Sunny 98 36.7 29 -1.7 9 9 E 12 19 29.74 1007 10 16 0.00 0.00
4:53 pm 16:53 Sunny 98 36.7 28 -2.2 8 8 SSE 13 20 29.72 1007 10 16 0.00 0.00
5:53 pm 17:53 Sunny 97 36.1 27 -2.8 8 8 ESE 17 28 29.72 1006 10 16 0.00 0.00
6:53 pm 18:53 Sunny 95 35 26 -3.3 8 8 SE 22 35 29.72 1007 10 16 0.00 0.00
7:53 pm 19:53 Clear 93 33.9 26 -3.3 9 9 SSW 14 22 29.75 1008 10 16 0.00 0.00
8:53 pm 20:53 Clear 90 32.2 25 -3.9 9 9 SSW 9 15 29.78 1009 10 16 0.00 0.00
9:53 pm 21:53 Clear 87 30.6 24 -4.4 10 10 S 8 13 29.81 1010 10 16 0.00 0.00
10:53 pm 22:53 Clear 85 29.4 24 -4.4 11 11 S 6 9 29.83 1010 10 16 0.00 0.00
11:53 pm 23:53 Clear 83 28.3 24 -4.4 11 11 Calm 29.84 1011 10 16 0.00 0.00

Powered by AerisWeather